FJI461 NFFN-NZWN

Flight info

Callsign FJI461
Flight time N/A
Altitude 37000
Route FOXTRO AGTOS A578 AGTEM DCT EGATO DCT 30S177E DCT TARIB/N0453F380 DCT WK Y780 TARUA H364 PM V242 DOGAD
Aircraft B38M/M-SDE1FGHILORVWXY/HB1

Departure

Time N/A
Airport Nadi International Airport (NFFN)

Arrival

Time 2026-05-03 21:09
Airport Wellington International Airport (NZWN)
Time Latitude Longitude Altitude Speed Heading
2026-05-03 20:15 -36.46461 176.85084 37561 ft 449 kts 180°
2026-05-03 20:15 -36.52706 176.85355 37553 ft 449 kts 180°
2026-05-03 20:16 -36.58941 176.85626 37551 ft 449 kts 180°
2026-05-03 20:16 -36.65184 176.85899 37551 ft 449 kts 180°
2026-05-03 20:17 -36.71410 176.86170 37566 ft 449 kts 180°
2026-05-03 20:17 -36.77645 176.86443 37554 ft 449 kts 180°
2026-05-03 20:18 -36.83853 176.86715 37555 ft 449 kts 180°
2026-05-03 20:18 -36.90072 176.86987 37557 ft 449 kts 180°
2026-05-03 20:19 -36.96241 176.87259 37561 ft 449 kts 179°
2026-05-03 20:19 -37.02467 176.87532 37562 ft 448 kts 179°
2026-05-03 20:20 -37.08678 176.87806 37562 ft 449 kts 179°
2026-05-03 20:20 -37.13792 176.88032 37565 ft 448 kts 179°
2026-05-03 20:21 -37.19951 176.88304 37569 ft 448 kts 179°
2026-05-03 20:21 -37.26084 176.88576 37565 ft 448 kts 179°
2026-05-03 20:22 -37.32304 176.88852 37570 ft 448 kts 179°
2026-05-03 20:22 -37.37395 176.89078 37570 ft 448 kts 179°
2026-05-03 20:23 -37.42552 176.89307 37573 ft 448 kts 179°
2026-05-03 20:23 -37.48644 176.89579 37578 ft 448 kts 179°
2026-05-03 20:24 -37.54823 176.89854 37576 ft 448 kts 179°
2026-05-03 20:24 -37.60979 176.90129 37581 ft 448 kts 179°
2026-05-03 20:25 -37.67020 176.90399 37581 ft 448 kts 179°
2026-05-03 20:25 -37.73130 176.90673 37584 ft 448 kts 179°
2026-05-03 20:26 -37.79205 176.90946 37588 ft 448 kts 179°
2026-05-03 20:26 -37.83031 176.91119 37589 ft 448 kts 179°
2026-05-03 20:27 -37.89130 176.91379 37591 ft 447 kts 181°
2026-05-03 20:27 -37.92037 176.90944 37577 ft 444 kts 197°
2026-05-03 20:27 -37.94878 176.89475 37606 ft 441 kts 210°
2026-05-03 20:28 -38.00203 176.85717 37599 ft 444 kts 210°
2026-05-03 20:28 -38.05435 176.81878 37601 ft 444 kts 211°
2026-05-03 20:29 -38.10703 176.77950 37604 ft 444 kts 211°
2026-05-03 20:29 -38.15945 176.74029 37615 ft 444 kts 211°
2026-05-03 20:30 -38.21180 176.70105 37612 ft 444 kts 211°
2026-05-03 20:30 -38.26413 176.66176 37616 ft 444 kts 211°
2026-05-03 20:31 -38.31657 176.62232 37619 ft 444 kts 211°
2026-05-03 20:31 -38.36893 176.58287 37614 ft 443 kts 211°
2026-05-03 20:32 -38.42124 176.54340 37617 ft 444 kts 211°
2026-05-03 20:32 -38.47371 176.50374 37619 ft 444 kts 211°
2026-05-03 20:33 -38.52627 176.46394 37618 ft 444 kts 211°
2026-05-03 20:33 -38.57875 176.42413 37619 ft 443 kts 211°
2026-05-03 20:34 -38.63029 176.38498 37620 ft 443 kts 211°
2026-05-03 20:34 -38.68289 176.34494 37620 ft 443 kts 211°
2026-05-03 20:35 -38.73541 176.30494 37618 ft 443 kts 210°
2026-05-03 20:35 -38.76342 176.28890 37592 ft 442 kts 195°
2026-05-03 20:35 -38.79297 176.28184 37631 ft 443 kts 190°
2026-05-03 20:36 -38.85310 176.26975 37612 ft 444 kts 189°
2026-05-03 20:36 -38.91376 176.25849 37604 ft 444 kts 188°
2026-05-03 20:37 -38.97474 176.24741 37602 ft 444 kts 188°
2026-05-03 20:37 -39.03531 176.23641 37602 ft 444 kts 188°
2026-05-03 20:38 -39.09494 176.22556 37602 ft 443 kts 188°
2026-05-03 20:38 -39.15585 176.21446 37595 ft 442 kts 188°
2026-05-03 20:39 -39.21615 176.20346 37594 ft 442 kts 188°
2026-05-03 20:39 -39.27662 176.19240 37594 ft 442 kts 188°
2026-05-03 20:40 -39.33741 176.18127 37590 ft 441 kts 188°
2026-05-03 20:40 -39.39811 176.17013 37594 ft 441 kts 188°
2026-05-03 20:41 -39.45828 176.15612 37570 ft 440 kts 201°
2026-05-03 20:41 -39.51419 176.12389 37570 ft 441 kts 204°
2026-05-03 20:42 -39.56957 176.09135 37593 ft 440 kts 204°
2026-05-03 20:42 -39.62513 176.05821 37594 ft 440 kts 204°
2026-05-03 20:43 -39.68068 176.02497 37604 ft 440 kts 205°
2026-05-03 20:43 -39.73085 175.99489 37600 ft 440 kts 205°
2026-05-03 20:43 -39.75849 175.97830 37316 ft 435 kts 204°
2026-05-03 20:44 -39.78543 175.96212 36643 ft 435 kts 204°
2026-05-03 20:44 -39.81289 175.94561 36027 ft 435 kts 204°
2026-05-03 20:44 -39.84062 175.92892 35519 ft 431 kts 204°
2026-05-03 20:44 -39.86772 175.91259 35052 ft 428 kts 204°
2026-05-03 20:45 -39.89466 175.89635 34553 ft 426 kts 204°
2026-05-03 20:45 -39.92152 175.88014 33958 ft 424 kts 204°
2026-05-03 20:45 -39.94791 175.86420 33449 ft 421 kts 204°
2026-05-03 20:45 -39.97437 175.84820 32942 ft 416 kts 204°
2026-05-03 20:46 -40.00042 175.83244 32420 ft 409 kts 205°
2026-05-03 20:46 -40.02582 175.81705 31982 ft 401 kts 205°
2026-05-03 20:46 -40.05085 175.80188 31584 ft 393 kts 205°
2026-05-03 20:46 -40.07548 175.78695 31154 ft 386 kts 205°
2026-05-03 20:47 -40.09965 175.77228 30716 ft 380 kts 205°
2026-05-03 20:47 -40.12342 175.75784 30233 ft 374 kts 205°
2026-05-03 20:47 -40.14680 175.74363 29795 ft 367 kts 205°
2026-05-03 20:47 -40.16977 175.72966 29416 ft 369 kts 205°
2026-05-03 20:48 -40.19331 175.71533 29009 ft 374 kts 205°
2026-05-03 20:48 -40.21701 175.70088 28603 ft 376 kts 205°
2026-05-03 20:48 -40.24053 175.68655 28204 ft 375 kts 205°
2026-05-03 20:48 -40.26408 175.67218 27808 ft 373 kts 205°
2026-05-03 20:49 -40.28753 175.65784 27410 ft 371 kts 205°
2026-05-03 20:49 -40.31082 175.64361 27019 ft 368 kts 205°
2026-05-03 20:49 -40.33428 175.63026 26579 ft 366 kts 203°
2026-05-03 20:49 -40.35764 175.61720 26186 ft 364 kts 203°
2026-05-03 20:50 -40.38080 175.60417 25830 ft 362 kts 203°
2026-05-03 20:50 -40.40388 175.59114 25456 ft 360 kts 204°
2026-05-03 20:50 -40.42682 175.57817 25084 ft 357 kts 204°
2026-05-03 20:50 -40.44946 175.56536 24718 ft 355 kts 204°
2026-05-03 20:51 -40.47197 175.55262 24353 ft 354 kts 204°
2026-05-03 20:51 -40.49449 175.53985 23948 ft 352 kts 204°
2026-05-03 20:51 -40.51692 175.52713 23539 ft 350 kts 204°
2026-05-03 20:51 -40.53918 175.51449 23162 ft 348 kts 204°
2026-05-03 20:52 -40.56134 175.50191 22812 ft 346 kts 204°
2026-05-03 20:52 -40.58334 175.48941 22445 ft 345 kts 204°
2026-05-03 20:52 -40.60536 175.47693 22056 ft 344 kts 204°
2026-05-03 20:52 -40.62727 175.46452 21710 ft 341 kts 204°
2026-05-03 20:53 -40.64897 175.45222 21381 ft 338 kts 204°
2026-05-03 20:53 -40.67045 175.44002 21050 ft 336 kts 204°
2026-05-03 20:53 -40.69172 175.42794 20703 ft 334 kts 204°
2026-05-03 20:53 -40.71293 175.41589 20370 ft 331 kts 203°
2026-05-03 20:54 -40.73408 175.40385 20032 ft 330 kts 204°
2026-05-03 20:54 -40.77596 175.38001 19354 ft 326 kts 203°
2026-05-03 20:54 -40.79680 175.36814 18972 ft 327 kts 203°
2026-05-03 20:55 -40.81735 175.35643 18619 ft 325 kts 203°
2026-05-03 20:55 -40.83806 175.34462 18261 ft 323 kts 204°
2026-05-03 20:55 -40.85854 175.33293 17928 ft 320 kts 204°
2026-05-03 20:55 -40.87891 175.32130 17599 ft 317 kts 204°
2026-05-03 20:56 -40.89900 175.30982 17272 ft 314 kts 204°
2026-05-03 20:56 -40.91896 175.29841 16941 ft 312 kts 204°
2026-05-03 20:56 -40.93869 175.28711 16624 ft 309 kts 204°
2026-05-03 20:56 -40.95838 175.27583 16284 ft 308 kts 204°
2026-05-03 20:57 -40.97798 175.26457 15958 ft 306 kts 204°
2026-05-03 20:57 -40.99742 175.25338 15636 ft 304 kts 204°
2026-05-03 20:57 -41.01673 175.24227 15327 ft 302 kts 205°
2026-05-03 20:57 -41.03588 175.23124 15018 ft 299 kts 204°
2026-05-03 20:58 -41.05490 175.22017 14704 ft 297 kts 207°
2026-05-03 20:58 -41.07270 175.20627 14364 ft 296 kts 213°
2026-05-03 20:58 -41.09018 175.19206 14025 ft 294 kts 212°
2026-05-03 20:58 -41.10757 175.17809 13709 ft 291 kts 212°
2026-05-03 20:59 -41.12487 175.16434 13399 ft 288 kts 212°
2026-05-03 20:59 -41.14198 175.15080 13092 ft 286 kts 212°
2026-05-03 20:59 -41.15892 175.13744 12798 ft 283 kts 211°
2026-05-03 20:59 -41.17582 175.12412 12448 ft 282 kts 211°
2026-05-03 21:00 -41.19291 175.11066 11921 ft 289 kts 211°
2026-05-03 21:00 -41.19852 175.10624 11742 ft 291 kts 211°
2026-05-03 21:00 -41.22775 175.08319 11040 ft 286 kts 211°
2026-05-03 21:00 -41.24453 175.06995 10754 ft 275 kts 211°
2026-05-03 21:01 -41.26059 175.05727 10471 ft 264 kts 211°
2026-05-03 21:01 -41.27582 175.04524 10175 ft 255 kts 211°
2026-05-03 21:01 -41.29108 175.03317 9963 ft 253 kts 211°
2026-05-03 21:01 -41.30633 175.02100 9690 ft 257 kts 214°
2026-05-03 21:02 -41.32105 175.00793 9372 ft 259 kts 214°
2026-05-03 21:02 -41.33625 174.99441 9091 ft 259 kts 214°
2026-05-03 21:02 -41.35098 174.98136 8830 ft 258 kts 214°
2026-05-03 21:02 -41.36593 174.96814 8568 ft 259 kts 214°
2026-05-03 21:03 -41.38067 174.95512 8414 ft 247 kts 214°
2026-05-03 21:03 -41.39454 174.94286 8265 ft 232 kts 214°
2026-05-03 21:03 -41.40753 174.93138 8152 ft 217 kts 214°
2026-05-03 21:03 -41.41169 174.92770 8107 ft 212 kts 214°
2026-05-03 21:04 -41.42285 174.91798 7998 ft 212 kts 211°
2026-05-03 21:04 -41.43725 174.91243 7692 ft 222 kts 186°
2026-05-03 21:04 -41.45287 174.91084 7297 ft 229 kts 186°
2026-05-03 21:04 -41.46895 174.90924 6869 ft 235 kts 185°
2026-05-03 21:05 -41.48508 174.90444 6275 ft 244 kts 209°
2026-05-03 21:05 -41.49729 174.88845 5654 ft 252 kts 242°
2026-05-03 21:05 -41.50133 174.86604 5110 ft 250 kts 270°
2026-05-03 21:05 -41.50042 174.84311 4619 ft 246 kts 273°
2026-05-03 21:06 -41.49910 174.82053 4115 ft 243 kts 282°
2026-05-03 21:06 -41.49073 174.80157 3550 ft 242 kts 321°
2026-05-03 21:06 -41.47512 174.79444 3075 ft 240 kts
2026-05-03 21:06 -41.45936 174.79703 3078 ft 216 kts
2026-05-03 21:07 -41.44522 174.79839 3054 ft 194 kts
2026-05-03 21:07 -41.43265 174.79946 3068 ft 172 kts
2026-05-03 21:07 -41.42108 174.80053 2775 ft 172 kts
2026-05-03 21:07 -41.40848 174.80174 2107 ft 188 kts
2026-05-03 21:08 -41.39556 174.80266 1727 ft 184 kts
2026-05-03 21:08 -41.38328 174.80349 1341 ft 170 kts
2026-05-03 21:08 -41.37180 174.80414 931 ft 162 kts
2026-05-03 21:08 -41.36082 174.80478 630 ft 153 kts
2026-05-03 21:09 -41.35049 174.80524 330 ft 144 kts
2026-05-03 21:09 -41.34051 174.80623 141 ft 143 kts
2026-05-03 21:09 -41.33080 174.80662 28 ft 135 kts
2026-05-03 21:09 -41.32325 174.80724 28 ft 49 kts
2026-05-03 21:10 -41.32195 174.80741 30 ft 7 kts
2026-05-03 21:10 -41.32166 174.80760 30 ft 9 kts 47°
2026-05-03 21:10 -41.32157 174.80824 30 ft 2 kts 106°
2026-05-03 21:10 -41.32193 174.80873 29 ft 13 kts 160°
2026-05-03 21:11 -41.32318 174.80842 27 ft 25 kts 188°
2026-05-03 21:11 -41.32492 174.80832 25 ft 27 kts 182°
2026-05-03 21:11 -41.32622 174.80826 22 ft 2 kts 178°